User: anonymous   Login
Location: Unspecified
(0.0000°N, 0.0000°E)
Time: 08:15:12
(UTC+00:00)
Language:

RS-7 - Orbit

View from above orbital plane
View from above orbital plane
View from above satellite
View from above satellite

Ground track
Ground track

The orbit data is extracted from the following two-line orbital elements,

1 13001U 81120E   21067.85708505  .00000108  00000-0  10949-2 0  9995
2 13001  82.9651 357.6481 0024858  32.9400  22.0491 12.08907173730676
Epoch (UTC): 08 March 2021 20:34:12
Eccentricity: 0.0024858
inclination: 82.9651°
perigee height: 1621 km
apogee height: 1661 km
right ascension of ascending node: 357.6481°
argument of perigee: 32.9400°
revolutions per day: 12.08907173
mean anomaly at epoch: 22.0491°
orbit number at epoch: 73067

The dashed part of the orbit path shows where the satellite is in the earth's shadow,  

DLR